• In Germany
  • List of Countries
  • For 7 days
  • Water Temperature
  • Satellite Maps
  • Weather Map
  • Weather Widgets
  • user-avatar
    Login

    Hourly Weather Shaki

    Today, 18 October, Wednesday

    Time Temperature Precipitation Wind Pressure Humidity
    00:00 +12°C° 0 mm 2 mps 738 mmHg 51%
    01:00 +12°C° 0 mm 2 mps 738 mmHg 52%
    02:00 +12°C° 0 mm 2 mps 738 mmHg 52%
    03:00 +12°C° 0 mm 2 mps 737 mmHg 55%
    04:00 +12°C° 0 mm 2 mps 738 mmHg 56%
    05:00 +12°C° 0 mm 1 mps 738 mmHg 56%
    06:00 +11°C° 0 mm 1 mps 738 mmHg 57%
    07:00 +13°C° 0 mm 1 mps 739 mmHg 54%
    08:00 +15°C° 0 mm 1 mps 739 mmHg 52%
    09:00 +18°C° 0 mm 1 mps 740 mmHg 48%
    10:00 +18°C° 0 mm 2 mps 740 mmHg 47%
    11:00 +19°C° 0 mm 2 mps 740 mmHg 46%
    12:00 +19°C° 0 mm 2 mps 740 mmHg 45%
    13:00 +20°C° 0 mm 2 mps 740 mmHg 46%
    14:00 +20°C° 0 mm 2 mps 740 mmHg 46%
    15:00 +20°C° 0 mm 2 mps 740 mmHg 46%
    16:00 +19°C° 0 mm 2 mps 740 mmHg 51%
    17:00 +17°C° 0 mm 2 mps 740 mmHg 56%
    18:00 +16°C° 0 mm 2 mps 741 mmHg 61%
    19:00 +15°C° 0 mm 2 mps 741 mmHg 62%
    20:00 +15°C° 0 mm 2 mps 741 mmHg 63%
    21:00 +14°C° 0 mm 2 mps 741 mmHg 64%
    22:00 +14°C° 0 mm 2 mps 741 mmHg 64%
    23:00 +14°C° 0 mm 2 mps 742 mmHg 64%

    Tomorrow, 19 October, Thursday

    Time Temperature Precipitation Wind Pressure Humidity
    00:00 +13°C° 0 mm 2 mps 742 mmHg 64%
    01:00 +13°C° 0 mm 2 mps 742 mmHg 65%
    02:00 +13°C° 0 mm 2 mps 741 mmHg 65%
    03:00 +13°C° 0 mm 1 mps 741 mmHg 65%
    04:00 +13°C° 0 mm 1 mps 741 mmHg 65%
    05:00 +13°C° 0 mm 1 mps 741 mmHg 65%
    06:00 +13°C° 0 mm 1 mps 741 mmHg 65%
    07:00 +14°C° 0 mm 1 mps 741 mmHg 62%
    08:00 +15°C° 0 mm 1 mps 741 mmHg 60%
    09:00 +17°C° 0 mm 2 mps 741 mmHg 57%
    10:00 +18°C° 0 mm 2 mps 740 mmHg 55%
    11:00 +18°C° 0 mm 2 mps 740 mmHg 52%
    12:00 +19°C° 0 mm 2 mps 740 mmHg 50%
    13:00 +19°C° 0 mm 2 mps 739 mmHg 49%
    14:00 +21°C° 0 mm 1 mps 739 mmHg 48%
    15:00 +21°C° 0 mm 1 mps 738 mmHg 47%
    16:00 +19°C° 0 mm 1 mps 738 mmHg 52%
    17:00 +18°C° 0 mm 1 mps 738 mmHg 58%
    18:00 +15°C° 0 mm 0 mps 738 mmHg 63%
    19:00 +15°C° 0 mm 1 mps 738 mmHg 63%
    20:00 +15°C° 0 mm 1 mps 738 mmHg 64%
    21:00 +15°C° 0 mm 1 mps 738 mmHg 64%
    22:00 +14°C° 0 mm 1 mps 738 mmHg 65%
    23:00 +14°C° 0 mm 1 mps 738 mmHg 65%

    Day after tomorrow, 20 October, Friday

    Time Temperature Precipitation Wind Pressure Humidity
    00:00 +14°C° 0 mm 1 mps 738 mmHg 66%
    01:00 +14°C° 0 mm 1 mps 737 mmHg 65%
    02:00 +14°C° 0 mm 1 mps 737 mmHg 65%
    03:00 +14°C° 0 mm 1 mps 737 mmHg 65%
    04:00 +13°C° 0 mm 1 mps 737 mmHg 64%
    05:00 +13°C° 0 mm 1 mps 737 mmHg 64%
    06:00 +13°C° 0 mm 1 mps 737 mmHg 64%
    07:00 +15°C° 0 mm 1 mps 737 mmHg 58%
    08:00 +17°C° 0 mm 2 mps 737 mmHg 53%
    09:00 +19°C° 0 mm 2 mps 737 mmHg 48%
    10:00 +19°C° 0 mm 2 mps 737 mmHg 46%
    11:00 +20°C° 0 mm 2 mps 737 mmHg 43%
    12:00 +21°C° 0 mm 2 mps 736 mmHg 40%
    13:00 +23°C° 0 mm 1 mps 736 mmHg 40%
    14:00 +23°C° 0 mm 1 mps 736 mmHg 39%
    15:00 +23°C° 0 mm 1 mps 736 mmHg 39%
    16:00 +21°C° 0 mm 1 mps 736 mmHg 44%
    17:00 +20°C° 0 mm 1 mps 736 mmHg 48%
    18:00 +18°C° 0 mm 1 mps 736 mmHg 53%
    19:00 +18°C° 0 mm 1 mps 736 mmHg 53%
    20:00 +18°C° 0 mm 1 mps 736 mmHg 53%
    21:00 +16°C° 0 mm 1 mps 737 mmHg 54%
    22:00 +16°C° 0 mm 1 mps 737 mmHg 54%
    23:00 +15°C° 0 mm 1 mps 736 mmHg 54%

    21 October, Saturday

    Time Temperature Precipitation Wind Pressure Humidity
    00:00 +15°C° 0 mm 1 mps 736 mmHg 55%
    01:00 +15°C° 0 mm 1 mps 736 mmHg 55%
    02:00 +14°C° 0 mm 1 mps 736 mmHg 55%
    03:00 +14°C° 0 mm 1 mps 736 mmHg 56%
    04:00 +14°C° 0 mm 1 mps 736 mmHg 55%
    05:00 +14°C° 0 mm 1 mps 736 mmHg 55%
    06:00 +14°C° 0 mm 1 mps 736 mmHg 54%
    07:00 +15°C° 0 mm 1 mps 736 mmHg 49%
    08:00 +18°C° 0 mm 1 mps 736 mmHg 45%
    09:00 +20°C° 0 mm 1 mps 736 mmHg 40%
    10:00 +21°C° 0 mm 1 mps 736 mmHg 38%
    11:00 +21°C° 0 mm 2 mps 735 mmHg 36%
    12:00 +23°C° 0 mm 2 mps 735 mmHg 34%
    13:00 +23°C° 0 mm 2 mps 735 mmHg 33%
    14:00 +23°C° 0 mm 2 mps 734 mmHg 33%
    15:00 +23°C° 0 mm 2 mps 734 mmHg 32%
    16:00 +21°C° 0 mm 1 mps 734 mmHg 37%
    17:00 +20°C° 0 mm 1 mps 734 mmHg 41%
    18:00 +18°C° 0 mm 1 mps 734 mmHg 46%
    19:00 +18°C° 0 mm 1 mps 734 mmHg 46%
    20:00 +16°C° 0 mm 1 mps 735 mmHg 46%
    21:00 +16°C° 0 mm 1 mps 735 mmHg 46%
    22:00 +15°C° 0 mm 1 mps 735 mmHg 43%
    23:00 +15°C° 0 mm 1 mps 735 mmHg 41%

    22 October, Sunday

    Time Temperature Precipitation Wind Pressure Humidity
    00:00 +15°C° 0 mm 1 mps 735 mmHg 39%
    01:00 +15°C° 0 mm 1 mps 735 mmHg 36%
    02:00 +14°C° 0 mm 1 mps 735 mmHg 33%
    03:00 +14°C° 0 mm 1 mps 735 mmHg 30%
    04:00 +14°C° 0 mm 1 mps 735 mmHg 31%
    05:00 +14°C° 0 mm 1 mps 735 mmHg 32%
    06:00 +13°C° 0 mm 1 mps 736 mmHg 33%
    07:00 +15°C° 0 mm 1 mps 736 mmHg 31%
    08:00 +18°C° 0 mm 1 mps 737 mmHg 30%
    09:00 +18°C° 0 mm 2 mps 737 mmHg 29%
    10:00 +19°C° 0 mm 2 mps 737 mmHg 29%
    11:00 +20°C° 0 mm 2 mps 737 mmHg 28%
    12:00 +20°C° 0 mm 2 mps 737 mmHg 28%
    13:00 +20°C° 0 mm 2 mps 737 mmHg 28%
    14:00 +20°C° 0 mm 2 mps 737 mmHg 29%
    15:00 +20°C° 0 mm 2 mps 737 mmHg 29%
    16:00 +18°C° 0 mm 2 mps 738 mmHg 32%
    17:00 +17°C° 0 mm 2 mps 738 mmHg 36%
    18:00 +15°C° 0 mm 2 mps 739 mmHg 39%
    19:00 +14°C° 0 mm 3 mps 739 mmHg 45%
    20:00 +13°C° 0 mm 3 mps 739 mmHg 50%
    21:00 +13°C° 0 mm 4 mps 740 mmHg 56%
    22:00 +13°C° 0.2 mm 4 mps 740 mmHg 62%
    23:00 +12°C° 0.2 mm 4 mps 740 mmHg 68%

    23 October, Monday

    Time Temperature Precipitation Wind Pressure Humidity
    00:00 +12°C° 0.2 mm 4 mps 740 mmHg 74%
    01:00 +12°C° 0.1 mm 3 mps 740 mmHg 76%
    02:00 +12°C° 0.1 mm 3 mps 740 mmHg 78%
    03:00 +11°C° 0.1 mm 3 mps 740 mmHg 80%
    04:00 +12°C° 0.1 mm 2 mps 740 mmHg 80%
    05:00 +12°C° 0.1 mm 2 mps 740 mmHg 80%
    06:00 +12°C° 0.1 mm 2 mps 740 mmHg 80%
    07:00 +13°C° 0 mm 2 mps 740 mmHg 77%
    08:00 +13°C° 0 mm 2 mps 740 mmHg 74%
    09:00 +14°C° 0 mm 2 mps 739 mmHg 70%
    10:00 +14°C° 0 mm 2 mps 739 mmHg 67%
    11:00 +15°C° 0 mm 2 mps 738 mmHg 63%
    12:00 +16°C° 0 mm 2 mps 738 mmHg 59%
    13:00 +16°C° 0 mm 2 mps 738 mmHg 58%
    14:00 +16°C° 0 mm 2 mps 737 mmHg 57%
    15:00 +17°C° 0 mm 2 mps 737 mmHg 56%
    16:00 +15°C° 0 mm 1 mps 737 mmHg 61%
    17:00 +14°C° 0 mm 1 mps 737 mmHg 66%
    18:00 +13°C° 0 mm 1 mps 737 mmHg 70%
    19:00 +13°C° 0 mm 1 mps 737 mmHg 70%
    20:00 +13°C° 0 mm 1 mps 737 mmHg 70%
    21:00 +12°C° 0 mm 0 mps 737 mmHg 70%
    22:00 +12°C° 0 mm 1 mps 737 mmHg 69%
    23:00 +12°C° 0 mm 1 mps 737 mmHg 69%
    Show more